THOR ABLESTAR DEB, 158

Orbit data source: Space-Track

THOR ABLESTAR DEB, 158 is space debris in LEO originally from a launch on Thu, 29 Jun 1961 UTC launched from the Air Force Eastern Test Range (AFETR). Debris objects in space refer to the collection of defunct objects orbiting the Earth. Examples of debris include non-operational satellites, rocket bodies, and fragments generated from explosions, collisions, or faulty payload assembly.

Loading next visibility...
Identifier
158, 1961-015AU
Orbit
LEO
Country
Flag of USUS
Related business
Manufacturer
Unknown
Mission
Spacecraft
Bus & Motor
Unknown
Mass
Unknown
Launch date (UTC)
1961-06-29 (64 years ago)
Launch vehicle
Unknown
Launch site
Air Force Eastern Test Range (AFETR)
Object type
Payload
Rocket body
Debris
Shape & HBR
Unknown
Radar Cross Section
Medium (>0.1 m² and <1 m²)

Expand to show TLE details & history
Last TLE update: 1 day ago

TLE from 1 day ago
0 THOR ABLESTAR DEB
1 00158U 61015AU  25260.72425830 -.00000326  00000-0 -70889-3 0  9991
2 00158  67.0767  25.2007 0603355  49.3323 315.8548 12.66055711970858
Epoch: 2025-09-17T17:22Z
TLE epoch observation values (Epoch: 2025-09-17T17:22:55.917Z)
Latitude
0.00005°
Longitude
127.57163°
Altitude
1,077.965 km
Speed
7.463 km/s
True Right ascension
01h 40m 48s
True Declination
0° 00' 00"
Sunlit
Object was in full shadow at epoch
Visualization orbit readout
Latitude
Unknown
Longitude
Unknown
Altitude
Unknown
Speed
Unknown
Apparent Right ascension
Unknown
Apparent Declination
Unknown
Sunlit
N/A
Visualization observer readout
Local Sidereal Time
15:22:18
Azimuth
Unknown
Elevation
Unknown
Doppler factor
Unknown
Orbital elements
Apogee altitude
1,865.589 km
Perigee altitude
927.416 km
Semi-major axis
7,774.639 km
Eccentricity
0.06034
Inclination
67.0767°
RAAN
25.2007°
Arg. of periapsis
49.3323°
True anomaly
310.77127°
Mean anomaly
315.8548°
Eccentric anomaly
313.34059°
Mean motion
3.16609 °/min
Orbital period
113.71 mins
BSTAR
-0.00070889
Loading maneuver chart data...
Computing Atmospheric mass density...

Documentation

Showing up to 5 results
|